Location: Unspecified
(51.2667°N, 0.0000°E)
Time: 10:25:52
(UTC+00:00)

nSIGHT-1 - Pass Details

Date: 22 September 2019
Orbit: 338 x 344 km, 51.6° (Epoch: 13 October)

Event Time Altitude Azimuth Distance (km) Brightness Sun altitude
Rises 20:28:43 0° 281° (W) 2,146 ? -23.0°
Reaches altitude 10° 20:31:05 10° 262° (W) 1,299 ? -23.4°
Enters shadow 20:31:55 14° 248° (WSW) 1,075 ? -23.5°
